Location: Andiroba
(19.8650°S, 43.9258°W)
Time: 00:15:18
(UTC+00:00)

CZ-2D R/B - Pass Details

Date: 15 June 2024
Orbit: 478 x 490 km, 97.4° (Epoch: 24 July)

Event Time Altitude Azimuth Distance (km) Brightness Sun altitude
Rises 07:53:46 0° 21° (NNE) 2,518 7.2 -21.6°
Reaches altitude 10° 07:55:50 10° 25° (NNE) 1,648 6.3 -21.1°
Maximum altitude 07:59:17 53° 102° (ESE) 602 3.8 -20.3°
Enters shadow 08:01:46 18° 175° (S) 1,259 5.0 -19.8°
